Regional Weather Roundup
Issued by NWS

Home | Current Version | Previous Version | Text Only | Print | Product List | Glossary Off
Versions: 1 2 3 4 5 6 7 8 9 10 11 12 13 14 15 16 17 18 19 20 21 22 23 24 25 26 27 28 29 30 31 32 33 34 35 36 37 38 39 40 41 42 43 44 45 46 47 48 49 50

000
ASUS43 KLOT 261304
RWRIL

ILLINOIS REGIONAL WEATHER ROUNDUP
NATIONAL WEATHER SERVICE CHICAGO/ROMEOVILLE IL
800 AM CDT MON JUN 26 2017

NOTE: "FAIR" INDICATES FEW OR NO CLOUDS BELOW 12,000 FEET WITH NO
SIGNIFICANT WEATHER AND/OR OBSTRUCTIONS TO VISIBILITY.

* THESE STATIONS ARE NOT UNDER NWS QUALITY CONTROL. THEY ALSO MAY NOT
  REPORT WEATHER SUCH AS PRECIPITATION OR FOG.

ILZ001-002-007-009-015-016-024-261400-
NORTHWEST ILLINOIS

CITY           SKY/WX    TMP DP  RH WIND       PRES   REMARKS
MOLINE         CLOUDY    58  48  69 W10       30.18S
STERLING*      PTSUNNY   58  49  72 W9        30.16S
SAVANNA*       SUNNY     59  47  63 W12       30.15S
$$

ILZ003-004-008-010-011-017-018-261400-
NORTH CENTRAL ILLINOIS

CITY           SKY/WX    TMP DP  RH WIND       PRES   REMARKS
ROCKFORD       PTSUNNY   59  48  67 W9        30.14F
FREEPORT*      MOSUNNY   58  48  70 W6        30.15S
ROCHELLE*      MOSUNNY   59  49  69 W10       30.14S
DE KALB*       CLOUDY    58  47  67 W9        30.14S
PERU*          CLOUDY    58  48  69 W9        30.15F
$$

ILZ005-006-012>014-019>023-261400-
NORTHEAST ILLINOIS

CITY           SKY/WX    TMP DP  RH WIND       PRES   REMARKS
CHICAGO-OHARE  MOSUNNY   61  49  64 W9        30.11S
CHICAGO-MIDWAY MOSUNNY   62  50  64 W8        30.11F
AURORA         SUNNY     61  50  67 W8        30.14S
LANSING*       PTSUNNY   59  49  69 W7        30.13F
JOLIET*        CLOUDY    61  51  70 W3        30.14S
WAUKEGAN       SUNNY     60  53  77 CALM      30.10S
DUPAGE AIRPORT SUNNY     60  51  72 W7        30.12S
WHEELING       CLOUDY    61  51  70 SW8       30.12F
MORRIS*        CLOUDY    60  51  72 W9        30.13S
ROMEOVILLE*    PTSUNNY   60  48  64 W6        30.13F
NORTHERLY ISL    N/A     63  48  58 W1          N/A
$$

LMZ740>746-261400-
SOUTHERN LAKE MICHIGAN

STATION/POSITION SKY/WX   TEMP    WIND        PRES    VSBY  WAVE
                          AIR SEA DIR/SP/G                  HT/PER
                          (F)     (DEG/KT/KT) (MB)    (MI)  (FT/S)
SOUTHERN BUOY              59 61  310/ 16/ 19 1018.6          3/ 5
WILMETTE HARBOR            60 63  250/  8/ 10   N/A           1/ 2
HARRISON CRIB              61     260/  9/ 10   N/A
BURNHAM HARBOR             63                   N/A
CALUMET HARBOR             60     250/  4/  6 1019.5F
BURNS HARBOR               60     240/ 11/ 12 1020.3R
MICHIGAN CITY              60     240/ 17/ 19   N/A
MICHIGAN CITY 6N           61 66  280/ 12/ 16   N/A           3/ 4
ST. JOSEPH                 63 68  290/ 16/ 17 1019.4S         4/ 4
$$

ILZ025>027-034>036-040-047-049-050-058-095>099-261400-
WEST-CENTRAL ILLINOIS

CITY           SKY/WX    TMP DP  RH WIND       PRES   REMARKS
QUINCY         SUNNY     61  53  75 CALM      30.20S
GALESBURG*     CLOUDY    56  50  80 W9        30.22R
MACOMB*        MOSUNNY   58  52  79 W7        30.23R
JACKSONVILLE*  SUNNY     63  51  65 W6        30.20S
PITTSFIELD*    SUNNY     63  53  72 W5        30.22R
$$

ILZ028>032-037-038-041>044-048-051>054-059>061-261400-
CENTRAL ILLINOIS

CITY           SKY/WX    TMP DP  RH WIND       PRES   REMARKS
PONTIAC        SUNNY     62  52  68 W10       30.17S
BLOOMINGTON    MOSUNNY   63  48  58 W8        30.18F
DECATUR        SUNNY     62  49  62 W5        30.19S
PEORIA         SUNNY     62  49  62 W5        30.17F
LACON*         PTSUNNY   59  48  67 SW5       30.17R
LINCOLN*       SUNNY     63  51  64 W5        30.19S
SPRINGFIELD    SUNNY     63  51  65 W6        30.20S
TAYLORVILLE    SUNNY     62  51  66 W7        30.20S
$$

ILZ033-039-045-046-055>057-062-063-261400-
EAST-CENTRAL ILLINOIS

CITY           SKY/WX    TMP DP  RH WIND       PRES   REMARKS
CHAMPAIGN      SUNNY     61  52  72 W5        30.18S
RANTOUL*       SUNNY     65  53  66 W7        30.17S
MATTOON        SUNNY     64  53  67 W6        30.19R
PARIS*         SUNNY     62  55  76 SW7       30.19S
$$

ILZ079-100>102-261400-
SOUTHWEST ILLINOIS

CITY           SKY/WX    TMP DP  RH WIND       PRES   REMARKS
ALTON          SUNNY     64  57  77 SW6       30.22S
BELLEVILLE     SUNNY     65  54  67 CALM      30.23R
CAHOKIA*       SUNNY     66  51  58 SW5       30.22R
SPARTA*        SUNNY     66  52  62 CALM      30.24R
$$

ILZ064>066-069>071-074>076-080>082-084>086-088>090-092>094-261400-
SOUTH-CENTRAL ILLINOIS

CITY           SKY/WX    TMP DP  RH WIND       PRES   REMARKS
CARBONDALE     SUNNY     67  57  70 CALM      30.23R
CAIRO*         MOSUNNY   67  56  65 N3        30.23R
EFFINGHAM*     SUNNY     65  52  62 W8        30.22R
MARION         SUNNY     68  55  64 CALM      30.23S
MT. VERNON     SUNNY     64  54  69 W3        30.22S
CENTRALIA*     SUNNY     66  54  66 SW3       30.21R
SALEM*         SUNNY     66  54  66 W3        30.21S
METROPOLIS*    PTSUNNY   69  55  60 CALM      30.24R
$$

ILZ067-068-072-073-078-083-087-091-261400-
SOUTHEAST ILLINOIS

CITY           SKY/WX    TMP DP  RH WIND       PRES   REMARKS
LAWRENCEVILLE  SUNNY     64  54  69 W3        30.20S
FLORA*         SUNNY     67  51  56 W3        30.22R
FAIRFIELD*     SUNNY     64  53  66 CALM      30.21R
HARRISBURG*    SUNNY     67  55  66 NW3       30.22F
ROBINSON*      SUNNY     62  55  78 SW5       30.21R
CARMI*         SUNNY     65  55  69 W3        30.22R
$$

ABBREVIATIONS USED IN REMARKS
   TC - TEMPERATURE IN CELSIUS
  WCI - WIND CHILL INDEX
   HX - HEAT INDEX
  VSB - VISIBILITY
$$




USA.gov is the U.S. government's official web portal to all federal, state and local government web resources and services.